Regional Weather Roundup
Issued by NWS

Home | Current Version | Previous Version | Graphics & Text | Print | Product List | Glossary On
Versions: 1 2 3 4 5 6 7 8 9 10 11 12 13 14 15 16 17 18 19 20 21 22 23 24 25 26 27 28 29 30 31 32 33 34 35 36 37 38 39 40 41 42 43 44 45 46 47 48 49 50
000
ASUS44 KMEG 270700
RWRTN
TENNESSEE HOURLY STATE WEATHER ROUNDUP
NATIONAL WEATHER SERVICE MEMPHIS TN
100 AM CST FRI FEB 27 2015

TNZ002-004-019-021-049-052-054-088>092-270800-
WEST TENNESSEE

CITY           SKY/WX    TMP DP  RH WIND       PRES   REMARKS
MEMPHIS INTL   CLOUDY    26  15  63 NE12      30.44R WCI  16
NWS MEMPHIS      N/A     24 N/A N/A MISG        N/A
JACKSON        CLOUDY    24  14  65 N15       30.44R WCI  11
DYERSBURG      CLEAR     21   3  45 N10G16    30.49R WCI  10
UNION CITY     PTCLDY    18  12  79 N14       30.46R WCI   4
PARIS          CLOUDY    19  12  73 N13       30.44R WCI   7
LEXINGTON      CLOUDY    25  16  68 N7        30.39R WCI  17
SAVANNAH       CLOUDY    27  19  74 N10       30.39R WCI  17
$$

TNZ008-025-027-028-033-062-065-066-270800-
NORTH MIDDLE TENNESSEE

CITY           SKY/WX    TMP DP  RH WIND       PRES   REMARKS
NASHVILLE      CLOUDY    25  15  66 N13       30.38R WCI  14
CLARKSVILLE    FAIR      20  12  71 N13       30.43R WCI   7
COOKEVILLE     MOCLDY    27  23  86 N8        30.29R WCI  18
CROSSVILLE     CLOUDY    25  18  74 N10       30.22R WCI  15
$$

TNZ061-075-076-078-094-096-097-270800-
SOUTH MIDDLE TENNESSEE

CITY           SKY/WX    TMP DP  RH WIND       PRES   REMARKS
FAYETTEVILLE   PTCLDY    25  18  74 N14         N/A  WCI  13
TULLAHOMA      MOCLDY    25  18  74 N9        30.30R WCI  15
WINCHESTER     CLOUDY    27  21  80 N8        30.30R WCI  18
COLUMBIA       CLOUDY    25  21  86 N9        30.35R WCI  15
SHELBYVILLE    CLOUDY    27  19  74 N16       30.34R WCI  14
$$

TNZ017-018-042-046-047-270800-
NORTHEAST TENNESSEE

CITY           SKY/WX    TMP DP  RH WIND       PRES   REMARKS
TRI CITIES     CLOUDY    30  27  88 NW6       30.18R WCI  24
ELIZABETHTON   CLOUDY    28  27  93 SW5       30.16S WCI  23
$$

TNZ012-013-036-069-073-074-270800-
CENTRAL EAST TENNESSEE

CITY           SKY/WX    TMP DP  RH WIND       PRES   REMARKS
KNOXVILLE      CLOUDY    31  24  75 N6        30.22R WCI  25
OAK RIDGE      CLOUDY    32  22  66 NE3       30.24R
GATLINBURG     PTSUNNY   27  27 100 CALM      30.21R
$$

TNZ083-085-099-270800-
SOUTHEAST TENNESSEE

CITY           SKY/WX    TMP DP  RH WIND       PRES   REMARKS
CHATTANOOGA    CLEAR     31  22  69 CALM      30.26R
$$

SKY/WX REPORTED AS FAIR MEANS FEW OR NO CLOUDS BELOW
12 THOUSAND FEET.




USA.gov is the U.S. government's official web portal to all federal, state and local government web resources and services.